Location: Misciano
(43.5000°N, 11.9500°E)
Time: 02:59:01
(UTC+00:00)

Cosmos 1850 Rocket - Pass Details

Date: 13 August 2020
Orbit: 755 x 785 km, 74.0° (Epoch: 25 September)

Event Time Altitude Azimuth Distance (km) Brightness Sun altitude
Exits shadow 19:50:19 16° 168° (SSE) 1,963 5.7 -15.4°
Maximum altitude 19:54:15 42° 103° (ESE) 1,091 4.4 -16.0°
Drops below altitude 10° 19:59:12 10° 34° (NNE) 2,321 6.6 -16.7°
Sets 20:01:40 0° 27° (NNE) 3,247 7.4 -17.0°
